Index of /20260501/WXO-DD/model_rdps/10km/12/010
Name Last modified Size Description
Parent Directory -
20260501T12Z_MSC_RDPS_AbsoluteVorticity_IsbL-0250_RLatLon0.09_PT010H.grib2 2026-05-01 14:59 601K
20260501T12Z_MSC_RDPS_AbsoluteVorticity_IsbL-0500_RLatLon0.09_PT010H.grib2 2026-05-01 14:59 563K
20260501T12Z_MSC_RDPS_AbsoluteVorticity_IsbL-0700_RLatLon0.09_PT010H.grib2 2026-05-01 14:59 623K
20260501T12Z_MSC_RDPS_AbsoluteVorticity_IsbL-0850_RLatLon0.09_PT010H.grib2 2026-05-01 14:59 775K
20260501T12Z_MSC_RDPS_AirTemp_AGL-120m_RLatLon0.09_PT010H.grib2 2026-05-01 14:59 388K
20260501T12Z_MSC_RDPS_AirTemp_AGL-2m_RLatLon0.09_PT010H.grib2 2026-05-01 14:59 619K
20260501T12Z_MSC_RDPS_AirTemp_AGL-40m_RLatLon0.09_PT010H.grib2 2026-05-01 14:59 398K
20260501T12Z_MSC_RDPS_AirTemp_AGL-80m_RLatLon0.09_PT010H.grib2 2026-05-01 14:59 392K
20260501T12Z_MSC_RDPS_AirTemp_IsbL-0001_RLatLon0.09_PT010H.grib2 2026-05-01 14:59 265K
20260501T12Z_MSC_RDPS_AirTemp_IsbL-0005_RLatLon0.09_PT010H.grib2 2026-05-01 14:59 279K
20260501T12Z_MSC_RDPS_AirTemp_IsbL-0010_RLatLon0.09_PT010H.grib2 2026-05-01 14:59 288K
20260501T12Z_MSC_RDPS_AirTemp_IsbL-0020_RLatLon0.09_PT010H.grib2 2026-05-01 14:59 398K
20260501T12Z_MSC_RDPS_AirTemp_IsbL-0030_RLatLon0.09_PT010H.grib2 2026-05-01 14:59 326K
20260501T12Z_MSC_RDPS_AirTemp_IsbL-0050_RLatLon0.09_PT010H.grib2 2026-05-01 14:59 305K
20260501T12Z_MSC_RDPS_AirTemp_IsbL-0100_RLatLon0.09_PT010H.grib2 2026-05-01 14:59 416K
20260501T12Z_MSC_RDPS_AirTemp_IsbL-0150_RLatLon0.09_PT010H.grib2 2026-05-01 14:59 417K
20260501T12Z_MSC_RDPS_AirTemp_IsbL-0175_RLatLon0.09_PT010H.grib2 2026-05-01 14:59 412K
20260501T12Z_MSC_RDPS_AirTemp_IsbL-0200_RLatLon0.09_PT010H.grib2 2026-05-01 14:59 414K
20260501T12Z_MSC_RDPS_AirTemp_IsbL-0225_RLatLon0.09_PT010H.grib2 2026-05-01 14:59 411K
20260501T12Z_MSC_RDPS_AirTemp_IsbL-0250_RLatLon0.09_PT010H.grib2 2026-05-01 14:59 416K
20260501T12Z_MSC_RDPS_AirTemp_IsbL-0275_RLatLon0.09_PT010H.grib2 2026-05-01 14:59 397K
20260501T12Z_MSC_RDPS_AirTemp_IsbL-0300_RLatLon0.09_PT010H.grib2 2026-05-01 14:59 430K
20260501T12Z_MSC_RDPS_AirTemp_IsbL-0350_RLatLon0.09_PT010H.grib2 2026-05-01 14:59 419K
20260501T12Z_MSC_RDPS_AirTemp_IsbL-0400_RLatLon0.09_PT010H.grib2 2026-05-01 14:59 421K
20260501T12Z_MSC_RDPS_AirTemp_IsbL-0450_RLatLon0.09_PT010H.grib2 2026-05-01 14:59 394K
20260501T12Z_MSC_RDPS_AirTemp_IsbL-0500_RLatLon0.09_PT010H.grib2 2026-05-01 14:59 408K
20260501T12Z_MSC_RDPS_AirTemp_IsbL-0550_RLatLon0.09_PT010H.grib2 2026-05-01 14:59 428K
20260501T12Z_MSC_RDPS_AirTemp_IsbL-0600_RLatLon0.09_PT010H.grib2 2026-05-01 14:59 449K
20260501T12Z_MSC_RDPS_AirTemp_IsbL-0650_RLatLon0.09_PT010H.grib2 2026-05-01 14:59 466K
20260501T12Z_MSC_RDPS_AirTemp_IsbL-0700_RLatLon0.09_PT010H.grib2 2026-05-01 14:59 384K
20260501T12Z_MSC_RDPS_AirTemp_IsbL-0750_RLatLon0.09_PT010H.grib2 2026-05-01 14:59 414K
20260501T12Z_MSC_RDPS_AirTemp_IsbL-0800_RLatLon0.09_PT010H.grib2 2026-05-01 14:59 451K
20260501T12Z_MSC_RDPS_AirTemp_IsbL-0850_RLatLon0.09_PT010H.grib2 2026-05-01 14:59 494K
20260501T12Z_MSC_RDPS_AirTemp_IsbL-0875_RLatLon0.09_PT010H.grib2 2026-05-01 14:59 513K
20260501T12Z_MSC_RDPS_AirTemp_IsbL-0900_RLatLon0.09_PT010H.grib2 2026-05-01 14:59 521K
20260501T12Z_MSC_RDPS_AirTemp_IsbL-0925_RLatLon0.09_PT010H.grib2 2026-05-01 14:59 519K
20260501T12Z_MSC_RDPS_AirTemp_IsbL-0950_RLatLon0.09_PT010H.grib2 2026-05-01 14:59 522K
20260501T12Z_MSC_RDPS_AirTemp_IsbL-0970_RLatLon0.09_PT010H.grib2 2026-05-01 14:59 516K
20260501T12Z_MSC_RDPS_AirTemp_IsbL-0985_RLatLon0.09_PT010H.grib2 2026-05-01 14:59 508K
20260501T12Z_MSC_RDPS_AirTemp_IsbL-1000_RLatLon0.09_PT010H.grib2 2026-05-01 14:59 508K
20260501T12Z_MSC_RDPS_AirTemp_IsbL-1015_RLatLon0.09_PT010H.grib2 2026-05-01 14:59 501K
20260501T12Z_MSC_RDPS_Albedo_Sfc_RLatLon0.09_PT010H.grib2 2026-05-01 14:59 156K
20260501T12Z_MSC_RDPS_CAPE_Sfc_RLatLon0.09_PT010H.grib2 2026-05-01 14:59 1.7M
20260501T12Z_MSC_RDPS_CIN_Sfc_RLatLon0.09_PT010H.grib2 2026-05-01 14:59 1.3M
20260501T12Z_MSC_RDPS_CloudWater_EAtm_RLatLon0.09_PT010H.grib2 2026-05-01 14:59 222K
20260501T12Z_MSC_RDPS_ConvectivePrecip-Accum_Sfc_RLatLon0.09_PT010H.grib2 2026-05-01 14:59 560K
20260501T12Z_MSC_RDPS_DewPointDepression_AGL-2m_RLatLon0.09_PT010H.grib2 2026-05-01 14:59 414K
20260501T12Z_MSC_RDPS_DewPointDepression_IsbL-0001_RLatLon0.09_PT010H.grib2 2026-05-01 14:59 193
20260501T12Z_MSC_RDPS_DewPointDepression_IsbL-0005_RLatLon0.09_PT010H.grib2 2026-05-01 14:59 193
20260501T12Z_MSC_RDPS_DewPointDepression_IsbL-0010_RLatLon0.09_PT010H.grib2 2026-05-01 14:59 193
20260501T12Z_MSC_RDPS_DewPointDepression_IsbL-0020_RLatLon0.09_PT010H.grib2 2026-05-01 14:59 193
20260501T12Z_MSC_RDPS_DewPointDepression_IsbL-0030_RLatLon0.09_PT010H.grib2 2026-05-01 14:59 193
20260501T12Z_MSC_RDPS_DewPointDepression_IsbL-0050_RLatLon0.09_PT010H.grib2 2026-05-01 14:59 77K
20260501T12Z_MSC_RDPS_DewPointDepression_IsbL-0100_RLatLon0.09_PT010H.grib2 2026-05-01 14:59 125K
20260501T12Z_MSC_RDPS_DewPointDepression_IsbL-0150_RLatLon0.09_PT010H.grib2 2026-05-01 14:59 156K
20260501T12Z_MSC_RDPS_DewPointDepression_IsbL-0175_RLatLon0.09_PT010H.grib2 2026-05-01 14:59 192K
20260501T12Z_MSC_RDPS_DewPointDepression_IsbL-0200_RLatLon0.09_PT010H.grib2 2026-05-01 14:59 226K
20260501T12Z_MSC_RDPS_DewPointDepression_IsbL-0225_RLatLon0.09_PT010H.grib2 2026-05-01 14:59 261K
20260501T12Z_MSC_RDPS_DewPointDepression_IsbL-0250_RLatLon0.09_PT010H.grib2 2026-05-01 14:59 300K
20260501T12Z_MSC_RDPS_DewPointDepression_IsbL-0275_RLatLon0.09_PT010H.grib2 2026-05-01 14:59 306K
20260501T12Z_MSC_RDPS_DewPointDepression_IsbL-0300_RLatLon0.09_PT010H.grib2 2026-05-01 14:59 323K
20260501T12Z_MSC_RDPS_DewPointDepression_IsbL-0350_RLatLon0.09_PT010H.grib2 2026-05-01 14:59 329K
20260501T12Z_MSC_RDPS_DewPointDepression_IsbL-0400_RLatLon0.09_PT010H.grib2 2026-05-01 14:59 340K
20260501T12Z_MSC_RDPS_DewPointDepression_IsbL-0450_RLatLon0.09_PT010H.grib2 2026-05-01 14:59 349K
20260501T12Z_MSC_RDPS_DewPointDepression_IsbL-0500_RLatLon0.09_PT010H.grib2 2026-05-01 14:59 356K
20260501T12Z_MSC_RDPS_DewPointDepression_IsbL-0550_RLatLon0.09_PT010H.grib2 2026-05-01 14:59 367K
20260501T12Z_MSC_RDPS_DewPointDepression_IsbL-0600_RLatLon0.09_PT010H.grib2 2026-05-01 14:59 381K
20260501T12Z_MSC_RDPS_DewPointDepression_IsbL-0650_RLatLon0.09_PT010H.grib2 2026-05-01 14:59 385K
20260501T12Z_MSC_RDPS_DewPointDepression_IsbL-0700_RLatLon0.09_PT010H.grib2 2026-05-01 14:59 394K
20260501T12Z_MSC_RDPS_DewPointDepression_IsbL-0750_RLatLon0.09_PT010H.grib2 2026-05-01 14:59 416K
20260501T12Z_MSC_RDPS_DewPointDepression_IsbL-0800_RLatLon0.09_PT010H.grib2 2026-05-01 14:59 448K
20260501T12Z_MSC_RDPS_DewPointDepression_IsbL-0850_RLatLon0.09_PT010H.grib2 2026-05-01 14:59 474K
20260501T12Z_MSC_RDPS_DewPointDepression_IsbL-0875_RLatLon0.09_PT010H.grib2 2026-05-01 14:59 474K
20260501T12Z_MSC_RDPS_DewPointDepression_IsbL-0900_RLatLon0.09_PT010H.grib2 2026-05-01 14:59 466K
20260501T12Z_MSC_RDPS_DewPointDepression_IsbL-0925_RLatLon0.09_PT010H.grib2 2026-05-01 14:59 451K
20260501T12Z_MSC_RDPS_DewPointDepression_IsbL-0950_RLatLon0.09_PT010H.grib2 2026-05-01 14:59 444K
20260501T12Z_MSC_RDPS_DewPointDepression_IsbL-0970_RLatLon0.09_PT010H.grib2 2026-05-01 14:59 435K
20260501T12Z_MSC_RDPS_DewPointDepression_IsbL-0985_RLatLon0.09_PT010H.grib2 2026-05-01 14:59 431K
20260501T12Z_MSC_RDPS_DewPointDepression_IsbL-1000_RLatLon0.09_PT010H.grib2 2026-05-01 14:59 424K
20260501T12Z_MSC_RDPS_DewPointDepression_IsbL-1015_RLatLon0.09_PT010H.grib2 2026-05-01 14:59 412K
20260501T12Z_MSC_RDPS_DewPoint_AGL-2m_RLatLon0.09_PT010H.grib2 2026-05-01 14:59 391K
20260501T12Z_MSC_RDPS_DownwardLongwaveRadiationFlux-Accum_Sfc_RLatLon0.09_PT010H.grib2 2026-05-01 14:59 444K
20260501T12Z_MSC_RDPS_DownwardShortwaveRadiationFlux-Accum_NTAtm_RLatLon0.09_PT010H.grib2 2026-05-01 14:59 129K
20260501T12Z_MSC_RDPS_DownwardShortwaveRadiationFlux-Accum_Sfc_RLatLon0.09_PT010H.grib2 2026-05-01 14:59 552K
20260501T12Z_MSC_RDPS_FreezingRain-Accum1h_Sfc_RLatLon0.09_PT010H.grib2 2026-05-01 14:59 14K
20260501T12Z_MSC_RDPS_FreezingRain-Accum_Sfc_RLatLon0.09_PT010H.grib2 2026-05-01 14:59 45K
20260501T12Z_MSC_RDPS_GeopotentialHeight_IsbL-0001_RLatLon0.09_PT010H.grib2 2026-05-01 14:59 314K
20260501T12Z_MSC_RDPS_GeopotentialHeight_IsbL-0005_RLatLon0.09_PT010H.grib2 2026-05-01 14:59 334K
20260501T12Z_MSC_RDPS_GeopotentialHeight_IsbL-0010_RLatLon0.09_PT010H.grib2 2026-05-01 14:59 302K
20260501T12Z_MSC_RDPS_GeopotentialHeight_IsbL-0020_RLatLon0.09_PT010H.grib2 2026-05-01 14:59 301K
20260501T12Z_MSC_RDPS_GeopotentialHeight_IsbL-0030_RLatLon0.09_PT010H.grib2 2026-05-01 14:59 303K
20260501T12Z_MSC_RDPS_GeopotentialHeight_IsbL-0050_RLatLon0.09_PT010H.grib2 2026-05-01 14:59 337K
20260501T12Z_MSC_RDPS_GeopotentialHeight_IsbL-0100_RLatLon0.09_PT010H.grib2 2026-05-01 14:59 284K
20260501T12Z_MSC_RDPS_GeopotentialHeight_IsbL-0150_RLatLon0.09_PT010H.grib2 2026-05-01 14:59 228K
20260501T12Z_MSC_RDPS_GeopotentialHeight_IsbL-0175_RLatLon0.09_PT010H.grib2 2026-05-01 14:59 231K
20260501T12Z_MSC_RDPS_GeopotentialHeight_IsbL-0200_RLatLon0.09_PT010H.grib2 2026-05-01 14:59 265K
20260501T12Z_MSC_RDPS_GeopotentialHeight_IsbL-0225_RLatLon0.09_PT010H.grib2 2026-05-01 14:59 266K
20260501T12Z_MSC_RDPS_GeopotentialHeight_IsbL-0250_RLatLon0.09_PT010H.grib2 2026-05-01 14:59 267K
20260501T12Z_MSC_RDPS_GeopotentialHeight_IsbL-0275_RLatLon0.09_PT010H.grib2 2026-05-01 14:59 266K
20260501T12Z_MSC_RDPS_GeopotentialHeight_IsbL-0300_RLatLon0.09_PT010H.grib2 2026-05-01 14:59 234K
20260501T12Z_MSC_RDPS_GeopotentialHeight_IsbL-0350_RLatLon0.09_PT010H.grib2 2026-05-01 14:59 230K
20260501T12Z_MSC_RDPS_GeopotentialHeight_IsbL-0400_RLatLon0.09_PT010H.grib2 2026-05-01 14:59 227K
20260501T12Z_MSC_RDPS_GeopotentialHeight_IsbL-0450_RLatLon0.09_PT010H.grib2 2026-05-01 14:59 296K
20260501T12Z_MSC_RDPS_GeopotentialHeight_IsbL-0500_RLatLon0.09_PT010H.grib2 2026-05-01 14:59 292K
20260501T12Z_MSC_RDPS_GeopotentialHeight_IsbL-0550_RLatLon0.09_PT010H.grib2 2026-05-01 14:59 288K
20260501T12Z_MSC_RDPS_GeopotentialHeight_IsbL-0600_RLatLon0.09_PT010H.grib2 2026-05-01 14:59 286K
20260501T12Z_MSC_RDPS_GeopotentialHeight_IsbL-0650_RLatLon0.09_PT010H.grib2 2026-05-01 14:59 256K
20260501T12Z_MSC_RDPS_GeopotentialHeight_IsbL-0700_RLatLon0.09_PT010H.grib2 2026-05-01 14:59 255K
20260501T12Z_MSC_RDPS_GeopotentialHeight_IsbL-0750_RLatLon0.09_PT010H.grib2 2026-05-01 14:59 340K
20260501T12Z_MSC_RDPS_GeopotentialHeight_IsbL-0800_RLatLon0.09_PT010H.grib2 2026-05-01 14:59 345K
20260501T12Z_MSC_RDPS_GeopotentialHeight_IsbL-0850_RLatLon0.09_PT010H.grib2 2026-05-01 14:59 352K
20260501T12Z_MSC_RDPS_GeopotentialHeight_IsbL-0875_RLatLon0.09_PT010H.grib2 2026-05-01 14:59 354K
20260501T12Z_MSC_RDPS_GeopotentialHeight_IsbL-0900_RLatLon0.09_PT010H.grib2 2026-05-01 14:59 360K
20260501T12Z_MSC_RDPS_GeopotentialHeight_IsbL-0925_RLatLon0.09_PT010H.grib2 2026-05-01 14:59 396K
20260501T12Z_MSC_RDPS_GeopotentialHeight_IsbL-0950_RLatLon0.09_PT010H.grib2 2026-05-01 14:59 400K
20260501T12Z_MSC_RDPS_GeopotentialHeight_IsbL-0970_RLatLon0.09_PT010H.grib2 2026-05-01 14:59 406K
20260501T12Z_MSC_RDPS_GeopotentialHeight_IsbL-0985_RLatLon0.09_PT010H.grib2 2026-05-01 14:59 415K
20260501T12Z_MSC_RDPS_GeopotentialHeight_IsbL-1000_RLatLon0.09_PT010H.grib2 2026-05-01 14:59 428K
20260501T12Z_MSC_RDPS_GeopotentialHeight_IsbL-1015_RLatLon0.09_PT010H.grib2 2026-05-01 14:59 444K
20260501T12Z_MSC_RDPS_Humidex_Sfc_RLatLon0.09_PT010H.grib2 2026-05-01 14:59 2.4M
20260501T12Z_MSC_RDPS_IcePellets-Accum1h_Sfc_RLatLon0.09_PT010H.grib2 2026-05-01 14:59 5.5K
20260501T12Z_MSC_RDPS_IcePellets-Accum_Sfc_RLatLon0.09_PT010H.grib2 2026-05-01 14:59 16K
20260501T12Z_MSC_RDPS_KIndex_Sfc_RLatLon0.09_PT010H.grib2 2026-05-01 14:59 2.4M
20260501T12Z_MSC_RDPS_LatentHeatNetFlux_Sfc_RLatLon0.09_PT010H.grib2 2026-05-01 14:59 375K
20260501T12Z_MSC_RDPS_LiftedIndex-MU-VT_IsbL-0500_RLatLon0.09_PT010H.grib2 2026-05-01 14:59 2.4M
20260501T12Z_MSC_RDPS_NetLongwaveRadiationFlux-Accum_Sfc_RLatLon0.09_PT010H.grib2 2026-05-01 14:59 594K
20260501T12Z_MSC_RDPS_NetShortwaveRadiationFlux-Accum_Sfc_RLatLon0.09_PT010H.grib2 2026-05-01 14:59 553K
20260501T12Z_MSC_RDPS_PlanetaryBoundaryLayerHeight_Sfc_RLatLon0.09_PT010H.grib2 2026-05-01 14:59 1.0M
20260501T12Z_MSC_RDPS_Precip-Accum1h_Sfc_RLatLon0.09_PT010H.grib2 2026-05-01 14:59 1.1M
20260501T12Z_MSC_RDPS_Precip-Accum_Sfc_RLatLon0.09_PT010H.grib2 2026-05-01 14:59 1.5M
20260501T12Z_MSC_RDPS_PrecipRate_Sfc_RLatLon0.09_PT010H.grib2 2026-05-01 14:59 161K
20260501T12Z_MSC_RDPS_PrecipType-Instant_Sfc_RLatLon0.09_PT010H.grib2 2026-05-01 14:59 556K
20260501T12Z_MSC_RDPS_Pressure-Trend3h_Sfc_RLatLon0.09_PT010H.grib2 2026-05-01 14:59 1.2M
20260501T12Z_MSC_RDPS_Pressure_MSL_RLatLon0.09_PT010H.grib2 2026-05-01 14:59 328K
20260501T12Z_MSC_RDPS_Pressure_PVU-1.5_RLatLon0.09_PT010H.grib2 2026-05-01 14:59 2.5M
20260501T12Z_MSC_RDPS_Pressure_PVU-1_RLatLon0.09_PT010H.grib2 2026-05-01 14:59 2.4M
20260501T12Z_MSC_RDPS_Pressure_PVU-2_RLatLon0.09_PT010H.grib2 2026-05-01 14:59 2.4M
20260501T12Z_MSC_RDPS_Pressure_Sfc_RLatLon0.09_PT010H.grib2 2026-05-01 14:59 498K
20260501T12Z_MSC_RDPS_RadiativeTemp_Sfc_RLatLon0.09_PT010H.grib2 2026-05-01 14:59 323K
20260501T12Z_MSC_RDPS_Rain-Accum1h_Sfc_RLatLon0.09_PT010H.grib2 2026-05-01 14:59 517K
20260501T12Z_MSC_RDPS_Rain-Accum_Sfc_RLatLon0.09_PT010H.grib2 2026-05-01 14:59 1.1M
20260501T12Z_MSC_RDPS_RelativeHumidity_AGL-2m_RLatLon0.09_PT010H.grib2 2026-05-01 14:59 1.0M
20260501T12Z_MSC_RDPS_RelativeHumidity_IsbL-0010_RLatLon0.09_PT010H.grib2 2026-05-01 14:59 624K
20260501T12Z_MSC_RDPS_RelativeHumidity_IsbL-0020_RLatLon0.09_PT010H.grib2 2026-05-01 14:59 675K
20260501T12Z_MSC_RDPS_RelativeHumidity_IsbL-0030_RLatLon0.09_PT010H.grib2 2026-05-01 14:59 602K
20260501T12Z_MSC_RDPS_RelativeHumidity_IsbL-0050_RLatLon0.09_PT010H.grib2 2026-05-01 14:59 309K
20260501T12Z_MSC_RDPS_RelativeHumidity_IsbL-0100_RLatLon0.09_PT010H.grib2 2026-05-01 14:59 274K
20260501T12Z_MSC_RDPS_RelativeHumidity_IsbL-0150_RLatLon0.09_PT010H.grib2 2026-05-01 14:59 410K
20260501T12Z_MSC_RDPS_RelativeHumidity_IsbL-0175_RLatLon0.09_PT010H.grib2 2026-05-01 14:59 480K
20260501T12Z_MSC_RDPS_RelativeHumidity_IsbL-0200_RLatLon0.09_PT010H.grib2 2026-05-01 14:59 561K
20260501T12Z_MSC_RDPS_RelativeHumidity_IsbL-0225_RLatLon0.09_PT010H.grib2 2026-05-01 14:59 621K
20260501T12Z_MSC_RDPS_RelativeHumidity_IsbL-0250_RLatLon0.09_PT010H.grib2 2026-05-01 14:59 686K
20260501T12Z_MSC_RDPS_RelativeHumidity_IsbL-0275_RLatLon0.09_PT010H.grib2 2026-05-01 14:59 708K
20260501T12Z_MSC_RDPS_RelativeHumidity_IsbL-0300_RLatLon0.09_PT010H.grib2 2026-05-01 14:59 750K
20260501T12Z_MSC_RDPS_RelativeHumidity_IsbL-0350_RLatLon0.09_PT010H.grib2 2026-05-01 14:59 767K
20260501T12Z_MSC_RDPS_RelativeHumidity_IsbL-0400_RLatLon0.09_PT010H.grib2 2026-05-01 14:59 786K
20260501T12Z_MSC_RDPS_RelativeHumidity_IsbL-0450_RLatLon0.09_PT010H.grib2 2026-05-01 14:59 796K
20260501T12Z_MSC_RDPS_RelativeHumidity_IsbL-0500_RLatLon0.09_PT010H.grib2 2026-05-01 14:59 803K
20260501T12Z_MSC_RDPS_RelativeHumidity_IsbL-0550_RLatLon0.09_PT010H.grib2 2026-05-01 14:59 833K
20260501T12Z_MSC_RDPS_RelativeHumidity_IsbL-0600_RLatLon0.09_PT010H.grib2 2026-05-01 14:59 858K
20260501T12Z_MSC_RDPS_RelativeHumidity_IsbL-0650_RLatLon0.09_PT010H.grib2 2026-05-01 14:59 868K
20260501T12Z_MSC_RDPS_RelativeHumidity_IsbL-0700_RLatLon0.09_PT010H.grib2 2026-05-01 14:59 889K
20260501T12Z_MSC_RDPS_RelativeHumidity_IsbL-0750_RLatLon0.09_PT010H.grib2 2026-05-01 14:59 933K
20260501T12Z_MSC_RDPS_RelativeHumidity_IsbL-0800_RLatLon0.09_PT010H.grib2 2026-05-01 14:59 1.0M
20260501T12Z_MSC_RDPS_RelativeHumidity_IsbL-0850_RLatLon0.09_PT010H.grib2 2026-05-01 14:59 1.0M
20260501T12Z_MSC_RDPS_RelativeHumidity_IsbL-0875_RLatLon0.09_PT010H.grib2 2026-05-01 14:59 1.1M
20260501T12Z_MSC_RDPS_RelativeHumidity_IsbL-0900_RLatLon0.09_PT010H.grib2 2026-05-01 14:59 1.1M
20260501T12Z_MSC_RDPS_RelativeHumidity_IsbL-0925_RLatLon0.09_PT010H.grib2 2026-05-01 14:59 1.1M
20260501T12Z_MSC_RDPS_RelativeHumidity_IsbL-0950_RLatLon0.09_PT010H.grib2 2026-05-01 14:59 1.1M
20260501T12Z_MSC_RDPS_RelativeHumidity_IsbL-0970_RLatLon0.09_PT010H.grib2 2026-05-01 14:59 1.0M
20260501T12Z_MSC_RDPS_RelativeHumidity_IsbL-0985_RLatLon0.09_PT010H.grib2 2026-05-01 14:59 1.0M
20260501T12Z_MSC_RDPS_RelativeHumidity_IsbL-1000_RLatLon0.09_PT010H.grib2 2026-05-01 14:59 1.0M
20260501T12Z_MSC_RDPS_RelativeHumidity_IsbL-1015_RLatLon0.09_PT010H.grib2 2026-05-01 14:59 1.0M
20260501T12Z_MSC_RDPS_Runoff-Accum_Sfc_RLatLon0.09_PT010H.grib2 2026-05-01 14:59 52K
20260501T12Z_MSC_RDPS_SWEATIndex_Sfc_RLatLon0.09_PT010H.grib2 2026-05-01 14:59 2.4M
20260501T12Z_MSC_RDPS_SeeingIndex_EAtm_RLatLon0.09_PT010H.grib2 2026-05-01 14:59 1.0M
20260501T12Z_MSC_RDPS_SensibleHeatNetFlux_Sfc_RLatLon0.09_PT010H.grib2 2026-05-01 14:59 342K
20260501T12Z_MSC_RDPS_ShowalterIndex_IsbL-0500_RLatLon0.09_PT010H.grib2 2026-05-01 14:59 2.6M
20260501T12Z_MSC_RDPS_SkyTransparencyIndex_EAtm_RLatLon0.09_PT010H.grib2 2026-05-01 14:59 723K
20260501T12Z_MSC_RDPS_Snow-Accum1h_Sfc_RLatLon0.09_PT010H.grib2 2026-05-01 14:59 428K
20260501T12Z_MSC_RDPS_Snow-Accum_Sfc_RLatLon0.09_PT010H.grib2 2026-05-01 14:59 562K
20260501T12Z_MSC_RDPS_SnowDensity_Sfc_RLatLon0.09_PT010H.grib2 2026-05-01 14:59 166K
20260501T12Z_MSC_RDPS_SnowDepth_Sfc_RLatLon0.09_PT010H.grib2 2026-05-01 14:59 661K
20260501T12Z_MSC_RDPS_SoilTemp_DBS-0to10cm_RLatLon0.09_PT010H.grib2 2026-05-01 14:59 218K
20260501T12Z_MSC_RDPS_SoilTemp_Sfc_RLatLon0.09_PT010H.grib2 2026-05-01 14:59 288K
20260501T12Z_MSC_RDPS_SoilVolumetricIceContent_Sfc_RLatLon0.09_PT010H.grib2 2026-05-01 14:59 161K
20260501T12Z_MSC_RDPS_SoilVolumetricWaterContent_DBS-0to10cm_RLatLon0.09_PT010H.grib2 2026-05-01 14:59 270K
20260501T12Z_MSC_RDPS_SoilVolumetricWaterContent_DBS-0to1cm_RLatLon0.09_PT010H.grib2 2026-05-01 14:59 337K
20260501T12Z_MSC_RDPS_SpecificHumidity_AGL-120m_RLatLon0.09_PT010H.grib2 2026-05-01 14:59 489K
20260501T12Z_MSC_RDPS_SpecificHumidity_AGL-2m_RLatLon0.09_PT010H.grib2 2026-05-01 14:59 654K
20260501T12Z_MSC_RDPS_SpecificHumidity_AGL-40m_RLatLon0.09_PT010H.grib2 2026-05-01 14:59 492K
20260501T12Z_MSC_RDPS_SpecificHumidity_AGL-80m_RLatLon0.09_PT010H.grib2 2026-05-01 14:59 489K
20260501T12Z_MSC_RDPS_SpecificHumidity_IsbL-0001_RLatLon0.09_PT010H.grib2 2026-05-01 14:59 402K
20260501T12Z_MSC_RDPS_SpecificHumidity_IsbL-0005_RLatLon0.09_PT010H.grib2 2026-05-01 14:59 359K
20260501T12Z_MSC_RDPS_SpecificHumidity_IsbL-0010_RLatLon0.09_PT010H.grib2 2026-05-01 14:59 392K
20260501T12Z_MSC_RDPS_SpecificHumidity_IsbL-0020_RLatLon0.09_PT010H.grib2 2026-05-01 14:59 380K
20260501T12Z_MSC_RDPS_SpecificHumidity_IsbL-0030_RLatLon0.09_PT010H.grib2 2026-05-01 14:59 373K
20260501T12Z_MSC_RDPS_SpecificHumidity_IsbL-0050_RLatLon0.09_PT010H.grib2 2026-05-01 14:59 373K
20260501T12Z_MSC_RDPS_SpecificHumidity_IsbL-0100_RLatLon0.09_PT010H.grib2 2026-05-01 14:59 444K
20260501T12Z_MSC_RDPS_SpecificHumidity_IsbL-0150_RLatLon0.09_PT010H.grib2 2026-05-01 14:59 478K
20260501T12Z_MSC_RDPS_SpecificHumidity_IsbL-0175_RLatLon0.09_PT010H.grib2 2026-05-01 14:59 438K
20260501T12Z_MSC_RDPS_SpecificHumidity_IsbL-0200_RLatLon0.09_PT010H.grib2 2026-05-01 14:59 455K
20260501T12Z_MSC_RDPS_SpecificHumidity_IsbL-0225_RLatLon0.09_PT010H.grib2 2026-05-01 14:59 455K
20260501T12Z_MSC_RDPS_SpecificHumidity_IsbL-0250_RLatLon0.09_PT010H.grib2 2026-05-01 14:59 515K
20260501T12Z_MSC_RDPS_SpecificHumidity_IsbL-0275_RLatLon0.09_PT010H.grib2 2026-05-01 14:59 474K
20260501T12Z_MSC_RDPS_SpecificHumidity_IsbL-0300_RLatLon0.09_PT010H.grib2 2026-05-01 14:59 449K
20260501T12Z_MSC_RDPS_SpecificHumidity_IsbL-0350_RLatLon0.09_PT010H.grib2 2026-05-01 14:59 439K
20260501T12Z_MSC_RDPS_SpecificHumidity_IsbL-0400_RLatLon0.09_PT010H.grib2 2026-05-01 14:59 517K
20260501T12Z_MSC_RDPS_SpecificHumidity_IsbL-0450_RLatLon0.09_PT010H.grib2 2026-05-01 14:59 457K
20260501T12Z_MSC_RDPS_SpecificHumidity_IsbL-0500_RLatLon0.09_PT010H.grib2 2026-05-01 14:59 509K
20260501T12Z_MSC_RDPS_SpecificHumidity_IsbL-0550_RLatLon0.09_PT010H.grib2 2026-05-01 14:59 585K
20260501T12Z_MSC_RDPS_SpecificHumidity_IsbL-0600_RLatLon0.09_PT010H.grib2 2026-05-01 14:59 519K
20260501T12Z_MSC_RDPS_SpecificHumidity_IsbL-0650_RLatLon0.09_PT010H.grib2 2026-05-01 14:59 556K
20260501T12Z_MSC_RDPS_SpecificHumidity_IsbL-0700_RLatLon0.09_PT010H.grib2 2026-05-01 14:59 598K
20260501T12Z_MSC_RDPS_SpecificHumidity_IsbL-0750_RLatLon0.09_PT010H.grib2 2026-05-01 14:59 668K
20260501T12Z_MSC_RDPS_SpecificHumidity_IsbL-0800_RLatLon0.09_PT010H.grib2 2026-05-01 14:59 739K
20260501T12Z_MSC_RDPS_SpecificHumidity_IsbL-0850_RLatLon0.09_PT010H.grib2 2026-05-01 14:59 811K
20260501T12Z_MSC_RDPS_SpecificHumidity_IsbL-0875_RLatLon0.09_PT010H.grib2 2026-05-01 14:59 697K
20260501T12Z_MSC_RDPS_SpecificHumidity_IsbL-0900_RLatLon0.09_PT010H.grib2 2026-05-01 14:59 709K
20260501T12Z_MSC_RDPS_SpecificHumidity_IsbL-0925_RLatLon0.09_PT010H.grib2 2026-05-01 14:59 710K
20260501T12Z_MSC_RDPS_SpecificHumidity_IsbL-0950_RLatLon0.09_PT010H.grib2 2026-05-01 14:59 709K
20260501T12Z_MSC_RDPS_SpecificHumidity_IsbL-0970_RLatLon0.09_PT010H.grib2 2026-05-01 14:59 698K
20260501T12Z_MSC_RDPS_SpecificHumidity_IsbL-0985_RLatLon0.09_PT010H.grib2 2026-05-01 14:59 689K
20260501T12Z_MSC_RDPS_SpecificHumidity_IsbL-1000_RLatLon0.09_PT010H.grib2 2026-05-01 14:59 680K
20260501T12Z_MSC_RDPS_SpecificHumidity_IsbL-1015_RLatLon0.09_PT010H.grib2 2026-05-01 14:59 667K
20260501T12Z_MSC_RDPS_SpecificHumidity_Sfc_RLatLon0.09_PT010H.grib2 2026-05-01 14:59 342K
20260501T12Z_MSC_RDPS_StormRelativeHelicity_EtaL-10000_RLatLon0.09_PT010H.grib2 2026-05-01 14:59 1.1M
20260501T12Z_MSC_RDPS_StormSeverityIndex_EtaL-10000_RLatLon0.09_PT010H.grib2 2026-05-01 14:59 1.2M
20260501T12Z_MSC_RDPS_Thickness_IsbL-0850to0700_RLatLon0.09_PT010H.grib2 2026-05-01 14:59 176K
20260501T12Z_MSC_RDPS_Thickness_IsbL-1000to0500_RLatLon0.09_PT010H.grib2 2026-05-01 14:59 136K
20260501T12Z_MSC_RDPS_Thickness_IsbL-1000to0850_RLatLon0.09_PT010H.grib2 2026-05-01 14:59 186K
20260501T12Z_MSC_RDPS_TotalCloudCover_Sfc_RLatLon0.09_PT010H.grib2 2026-05-01 14:59 646K
20260501T12Z_MSC_RDPS_TotalTotalsIndex_Sfc_RLatLon0.09_PT010H.grib2 2026-05-01 14:59 2.4M
20260501T12Z_MSC_RDPS_UVIndex-ClearSky_Sfc_RLatLon0.09_PT010H.grib2 2026-05-01 14:59 174K
20260501T12Z_MSC_RDPS_UVIndex_Sfc_RLatLon0.09_PT010H.grib2 2026-05-01 14:59 404K
20260501T12Z_MSC_RDPS_UpwardLongwaveRadiationFlux_NTAtm_RLatLon0.09_PT010H.grib2 2026-05-01 14:59 380K
20260501T12Z_MSC_RDPS_UpwardShortwaveRadiationFlux_NTAtm_RLatLon0.09_PT010H.grib2 2026-05-01 14:59 446K
20260501T12Z_MSC_RDPS_VerticalVelocity_IsbL-0250_RLatLon0.09_PT010H.grib2 2026-05-01 14:59 426K
20260501T12Z_MSC_RDPS_VerticalVelocity_IsbL-0500_RLatLon0.09_PT010H.grib2 2026-05-01 14:59 538K
20260501T12Z_MSC_RDPS_VerticalVelocity_IsbL-0700_RLatLon0.09_PT010H.grib2 2026-05-01 14:59 580K
20260501T12Z_MSC_RDPS_VerticalVelocity_IsbL-0850_RLatLon0.09_PT010H.grib2 2026-05-01 14:59 714K
20260501T12Z_MSC_RDPS_VerticalWindShear_EtaL-6500_RLatLon0.09_PT010H.grib2 2026-05-01 14:59 1.2M
20260501T12Z_MSC_RDPS_WindChill_Sfc_RLatLon0.09_PT010H.grib2 2026-05-01 14:59 1.1M
20260501T12Z_MSC_RDPS_WindDir_AGL-10m_RLatLon0.09_PT010H.grib2 2026-05-01 14:59 947K
20260501T12Z_MSC_RDPS_WindDir_AGL-120m_RLatLon0.09_PT010H.grib2 2026-05-01 14:59 597K
20260501T12Z_MSC_RDPS_WindDir_AGL-40m_RLatLon0.09_PT010H.grib2 2026-05-01 14:59 619K
20260501T12Z_MSC_RDPS_WindDir_AGL-80m_RLatLon0.09_PT010H.grib2 2026-05-01 14:59 606K
20260501T12Z_MSC_RDPS_WindDir_IsbL-0001_RLatLon0.09_PT010H.grib2 2026-05-01 14:59 281K
20260501T12Z_MSC_RDPS_WindDir_IsbL-0005_RLatLon0.09_PT010H.grib2 2026-05-01 14:59 346K
20260501T12Z_MSC_RDPS_WindDir_IsbL-0010_RLatLon0.09_PT010H.grib2 2026-05-01 14:59 358K
20260501T12Z_MSC_RDPS_WindDir_IsbL-0020_RLatLon0.09_PT010H.grib2 2026-05-01 14:59 407K
20260501T12Z_MSC_RDPS_WindDir_IsbL-0030_RLatLon0.09_PT010H.grib2 2026-05-01 14:59 399K
20260501T12Z_MSC_RDPS_WindDir_IsbL-0050_RLatLon0.09_PT010H.grib2 2026-05-01 14:59 404K
20260501T12Z_MSC_RDPS_WindDir_IsbL-0100_RLatLon0.09_PT010H.grib2 2026-05-01 14:59 412K
20260501T12Z_MSC_RDPS_WindDir_IsbL-0150_RLatLon0.09_PT010H.grib2 2026-05-01 14:59 414K
20260501T12Z_MSC_RDPS_WindDir_IsbL-0175_RLatLon0.09_PT010H.grib2 2026-05-01 14:59 436K
20260501T12Z_MSC_RDPS_WindDir_IsbL-0200_RLatLon0.09_PT010H.grib2 2026-05-01 14:59 448K
20260501T12Z_MSC_RDPS_WindDir_IsbL-0225_RLatLon0.09_PT010H.grib2 2026-05-01 14:59 450K
20260501T12Z_MSC_RDPS_WindDir_IsbL-0250_RLatLon0.09_PT010H.grib2 2026-05-01 14:59 451K
20260501T12Z_MSC_RDPS_WindDir_IsbL-0275_RLatLon0.09_PT010H.grib2 2026-05-01 14:59 471K
20260501T12Z_MSC_RDPS_WindDir_IsbL-0300_RLatLon0.09_PT010H.grib2 2026-05-01 14:59 470K
20260501T12Z_MSC_RDPS_WindDir_IsbL-0350_RLatLon0.09_PT010H.grib2 2026-05-01 14:59 492K
20260501T12Z_MSC_RDPS_WindDir_IsbL-0400_RLatLon0.09_PT010H.grib2 2026-05-01 14:59 509K
20260501T12Z_MSC_RDPS_WindDir_IsbL-0450_RLatLon0.09_PT010H.grib2 2026-05-01 14:59 524K
20260501T12Z_MSC_RDPS_WindDir_IsbL-0500_RLatLon0.09_PT010H.grib2 2026-05-01 14:59 539K
20260501T12Z_MSC_RDPS_WindDir_IsbL-0550_RLatLon0.09_PT010H.grib2 2026-05-01 14:59 560K
20260501T12Z_MSC_RDPS_WindDir_IsbL-0600_RLatLon0.09_PT010H.grib2 2026-05-01 14:59 592K
20260501T12Z_MSC_RDPS_WindDir_IsbL-0650_RLatLon0.09_PT010H.grib2 2026-05-01 14:59 631K
20260501T12Z_MSC_RDPS_WindDir_IsbL-0700_RLatLon0.09_PT010H.grib2 2026-05-01 14:59 679K
20260501T12Z_MSC_RDPS_WindDir_IsbL-0750_RLatLon0.09_PT010H.grib2 2026-05-01 14:59 726K
20260501T12Z_MSC_RDPS_WindDir_IsbL-0800_RLatLon0.09_PT010H.grib2 2026-05-01 14:59 793K
20260501T12Z_MSC_RDPS_WindDir_IsbL-0850_RLatLon0.09_PT010H.grib2 2026-05-01 14:59 863K
20260501T12Z_MSC_RDPS_WindDir_IsbL-0875_RLatLon0.09_PT010H.grib2 2026-05-01 14:59 883K
20260501T12Z_MSC_RDPS_WindDir_IsbL-0900_RLatLon0.09_PT010H.grib2 2026-05-01 14:59 898K
20260501T12Z_MSC_RDPS_WindDir_IsbL-0925_RLatLon0.09_PT010H.grib2 2026-05-01 14:59 904K
20260501T12Z_MSC_RDPS_WindDir_IsbL-0950_RLatLon0.09_PT010H.grib2 2026-05-01 14:59 902K
20260501T12Z_MSC_RDPS_WindDir_IsbL-0970_RLatLon0.09_PT010H.grib2 2026-05-01 14:59 906K
20260501T12Z_MSC_RDPS_WindDir_IsbL-0985_RLatLon0.09_PT010H.grib2 2026-05-01 14:59 914K
20260501T12Z_MSC_RDPS_WindDir_IsbL-1000_RLatLon0.09_PT010H.grib2 2026-05-01 14:59 926K
20260501T12Z_MSC_RDPS_WindDir_IsbL-1015_RLatLon0.09_PT010H.grib2 2026-05-01 14:59 940K
20260501T12Z_MSC_RDPS_WindGust-Max_AGL-10m_RLatLon0.09_PT010H.grib2 2026-05-01 14:59 1.0M
20260501T12Z_MSC_RDPS_WindGust-Min_AGL-10m_RLatLon0.09_PT010H.grib2 2026-05-01 14:59 959K
20260501T12Z_MSC_RDPS_WindGust_AGL-10m_RLatLon0.09_PT010H.grib2 2026-05-01 14:59 971K
20260501T12Z_MSC_RDPS_WindSpeed_AGL-10m_RLatLon0.09_PT010H.grib2 2026-05-01 14:59 828K
20260501T12Z_MSC_RDPS_WindSpeed_AGL-120m_RLatLon0.09_PT010H.grib2 2026-05-01 14:59 526K
20260501T12Z_MSC_RDPS_WindSpeed_AGL-40m_RLatLon0.09_PT010H.grib2 2026-05-01 14:59 529K
20260501T12Z_MSC_RDPS_WindSpeed_AGL-80m_RLatLon0.09_PT010H.grib2 2026-05-01 14:59 527K
20260501T12Z_MSC_RDPS_WindSpeed_IsbL-0001_RLatLon0.09_PT010H.grib2 2026-05-01 14:59 247K
20260501T12Z_MSC_RDPS_WindSpeed_IsbL-0005_RLatLon0.09_PT010H.grib2 2026-05-01 14:59 371K
20260501T12Z_MSC_RDPS_WindSpeed_IsbL-0010_RLatLon0.09_PT010H.grib2 2026-05-01 14:59 384K
20260501T12Z_MSC_RDPS_WindSpeed_IsbL-0020_RLatLon0.09_PT010H.grib2 2026-05-01 14:59 312K
20260501T12Z_MSC_RDPS_WindSpeed_IsbL-0030_RLatLon0.09_PT010H.grib2 2026-05-01 14:59 309K
20260501T12Z_MSC_RDPS_WindSpeed_IsbL-0050_RLatLon0.09_PT010H.grib2 2026-05-01 14:59 339K
20260501T12Z_MSC_RDPS_WindSpeed_IsbL-0100_RLatLon0.09_PT010H.grib2 2026-05-01 14:59 472K
20260501T12Z_MSC_RDPS_WindSpeed_IsbL-0150_RLatLon0.09_PT010H.grib2 2026-05-01 14:59 381K
20260501T12Z_MSC_RDPS_WindSpeed_IsbL-0175_RLatLon0.09_PT010H.grib2 2026-05-01 14:59 428K
20260501T12Z_MSC_RDPS_WindSpeed_IsbL-0200_RLatLon0.09_PT010H.grib2 2026-05-01 14:59 442K
20260501T12Z_MSC_RDPS_WindSpeed_IsbL-0225_RLatLon0.09_PT010H.grib2 2026-05-01 14:59 447K
20260501T12Z_MSC_RDPS_WindSpeed_IsbL-0250_RLatLon0.09_PT010H.grib2 2026-05-01 14:59 449K
20260501T12Z_MSC_RDPS_WindSpeed_IsbL-0275_RLatLon0.09_PT010H.grib2 2026-05-01 14:59 464K
20260501T12Z_MSC_RDPS_WindSpeed_IsbL-0300_RLatLon0.09_PT010H.grib2 2026-05-01 14:59 461K
20260501T12Z_MSC_RDPS_WindSpeed_IsbL-0350_RLatLon0.09_PT010H.grib2 2026-05-01 14:59 469K
20260501T12Z_MSC_RDPS_WindSpeed_IsbL-0400_RLatLon0.09_PT010H.grib2 2026-05-01 14:59 456K
20260501T12Z_MSC_RDPS_WindSpeed_IsbL-0450_RLatLon0.09_PT010H.grib2 2026-05-01 14:59 459K
20260501T12Z_MSC_RDPS_WindSpeed_IsbL-0500_RLatLon0.09_PT010H.grib2 2026-05-01 14:59 461K
20260501T12Z_MSC_RDPS_WindSpeed_IsbL-0550_RLatLon0.09_PT010H.grib2 2026-05-01 14:59 582K
20260501T12Z_MSC_RDPS_WindSpeed_IsbL-0600_RLatLon0.09_PT010H.grib2 2026-05-01 14:59 593K
20260501T12Z_MSC_RDPS_WindSpeed_IsbL-0650_RLatLon0.09_PT010H.grib2 2026-05-01 14:59 613K
20260501T12Z_MSC_RDPS_WindSpeed_IsbL-0700_RLatLon0.09_PT010H.grib2 2026-05-01 14:59 682K
20260501T12Z_MSC_RDPS_WindSpeed_IsbL-0750_RLatLon0.09_PT010H.grib2 2026-05-01 14:59 713K
20260501T12Z_MSC_RDPS_WindSpeed_IsbL-0800_RLatLon0.09_PT010H.grib2 2026-05-01 14:59 755K
20260501T12Z_MSC_RDPS_WindSpeed_IsbL-0850_RLatLon0.09_PT010H.grib2 2026-05-01 14:59 807K
20260501T12Z_MSC_RDPS_WindSpeed_IsbL-0875_RLatLon0.09_PT010H.grib2 2026-05-01 14:59 825K
20260501T12Z_MSC_RDPS_WindSpeed_IsbL-0900_RLatLon0.09_PT010H.grib2 2026-05-01 14:59 839K
20260501T12Z_MSC_RDPS_WindSpeed_IsbL-0925_RLatLon0.09_PT010H.grib2 2026-05-01 14:59 847K
20260501T12Z_MSC_RDPS_WindSpeed_IsbL-0950_RLatLon0.09_PT010H.grib2 2026-05-01 14:59 847K
20260501T12Z_MSC_RDPS_WindSpeed_IsbL-0970_RLatLon0.09_PT010H.grib2 2026-05-01 14:59 848K
20260501T12Z_MSC_RDPS_WindSpeed_IsbL-0985_RLatLon0.09_PT010H.grib2 2026-05-01 14:59 844K
20260501T12Z_MSC_RDPS_WindSpeed_IsbL-1000_RLatLon0.09_PT010H.grib2 2026-05-01 14:59 839K
20260501T12Z_MSC_RDPS_WindSpeed_IsbL-1015_RLatLon0.09_PT010H.grib2 2026-05-01 14:59 829K
20260501T12Z_MSC_RDPS_WindU_AGL-10m_RLatLon0.09_PT010H.grib2 2026-05-01 14:59 429K
20260501T12Z_MSC_RDPS_WindU_AGL-120m_RLatLon0.09_PT010H.grib2 2026-05-01 14:59 527K
20260501T12Z_MSC_RDPS_WindU_AGL-40m_RLatLon0.09_PT010H.grib2 2026-05-01 14:59 530K
20260501T12Z_MSC_RDPS_WindU_AGL-80m_RLatLon0.09_PT010H.grib2 2026-05-01 14:59 528K
20260501T12Z_MSC_RDPS_WindU_IsbL-0001_RLatLon0.09_PT010H.grib2 2026-05-01 14:59 238K
20260501T12Z_MSC_RDPS_WindU_IsbL-0005_RLatLon0.09_PT010H.grib2 2026-05-01 14:59 277K
20260501T12Z_MSC_RDPS_WindU_IsbL-0010_RLatLon0.09_PT010H.grib2 2026-05-01 14:59 287K
20260501T12Z_MSC_RDPS_WindU_IsbL-0020_RLatLon0.09_PT010H.grib2 2026-05-01 14:59 303K
20260501T12Z_MSC_RDPS_WindU_IsbL-0030_RLatLon0.09_PT010H.grib2 2026-05-01 14:59 304K
20260501T12Z_MSC_RDPS_WindU_IsbL-0050_RLatLon0.09_PT010H.grib2 2026-05-01 14:59 333K
20260501T12Z_MSC_RDPS_WindU_IsbL-0100_RLatLon0.09_PT010H.grib2 2026-05-01 14:59 427K
20260501T12Z_MSC_RDPS_WindU_IsbL-0150_RLatLon0.09_PT010H.grib2 2026-05-01 14:59 396K
20260501T12Z_MSC_RDPS_WindU_IsbL-0175_RLatLon0.09_PT010H.grib2 2026-05-01 14:59 421K
20260501T12Z_MSC_RDPS_WindU_IsbL-0200_RLatLon0.09_PT010H.grib2 2026-05-01 14:59 337K
20260501T12Z_MSC_RDPS_WindU_IsbL-0225_RLatLon0.09_PT010H.grib2 2026-05-01 14:59 340K
20260501T12Z_MSC_RDPS_WindU_IsbL-0250_RLatLon0.09_PT010H.grib2 2026-05-01 14:59 340K
20260501T12Z_MSC_RDPS_WindU_IsbL-0275_RLatLon0.09_PT010H.grib2 2026-05-01 14:59 354K
20260501T12Z_MSC_RDPS_WindU_IsbL-0300_RLatLon0.09_PT010H.grib2 2026-05-01 14:59 349K
20260501T12Z_MSC_RDPS_WindU_IsbL-0350_RLatLon0.09_PT010H.grib2 2026-05-01 14:59 356K
20260501T12Z_MSC_RDPS_WindU_IsbL-0400_RLatLon0.09_PT010H.grib2 2026-05-01 14:59 462K
20260501T12Z_MSC_RDPS_WindU_IsbL-0450_RLatLon0.09_PT010H.grib2 2026-05-01 14:59 465K
20260501T12Z_MSC_RDPS_WindU_IsbL-0500_RLatLon0.09_PT010H.grib2 2026-05-01 14:59 469K
20260501T12Z_MSC_RDPS_WindU_IsbL-0550_RLatLon0.09_PT010H.grib2 2026-05-01 14:59 473K
20260501T12Z_MSC_RDPS_WindU_IsbL-0600_RLatLon0.09_PT010H.grib2 2026-05-01 14:59 466K
20260501T12Z_MSC_RDPS_WindU_IsbL-0650_RLatLon0.09_PT010H.grib2 2026-05-01 14:59 485K
20260501T12Z_MSC_RDPS_WindU_IsbL-0700_RLatLon0.09_PT010H.grib2 2026-05-01 14:59 508K
20260501T12Z_MSC_RDPS_WindU_IsbL-0750_RLatLon0.09_PT010H.grib2 2026-05-01 14:59 535K
20260501T12Z_MSC_RDPS_WindU_IsbL-0800_RLatLon0.09_PT010H.grib2 2026-05-01 14:59 571K
20260501T12Z_MSC_RDPS_WindU_IsbL-0850_RLatLon0.09_PT010H.grib2 2026-05-01 14:59 616K
20260501T12Z_MSC_RDPS_WindU_IsbL-0875_RLatLon0.09_PT010H.grib2 2026-05-01 14:59 631K
20260501T12Z_MSC_RDPS_WindU_IsbL-0900_RLatLon0.09_PT010H.grib2 2026-05-01 14:59 642K
20260501T12Z_MSC_RDPS_WindU_IsbL-0925_RLatLon0.09_PT010H.grib2 2026-05-01 14:59 651K
20260501T12Z_MSC_RDPS_WindU_IsbL-0950_RLatLon0.09_PT010H.grib2 2026-05-01 14:59 648K
20260501T12Z_MSC_RDPS_WindU_IsbL-0970_RLatLon0.09_PT010H.grib2 2026-05-01 14:59 648K
20260501T12Z_MSC_RDPS_WindU_IsbL-0985_RLatLon0.09_PT010H.grib2 2026-05-01 14:59 783K
20260501T12Z_MSC_RDPS_WindU_IsbL-1000_RLatLon0.09_PT010H.grib2 2026-05-01 14:59 779K
20260501T12Z_MSC_RDPS_WindU_IsbL-1015_RLatLon0.09_PT010H.grib2 2026-05-01 14:59 818K
20260501T12Z_MSC_RDPS_WindV_AGL-10m_RLatLon0.09_PT010H.grib2 2026-05-01 14:59 425K
20260501T12Z_MSC_RDPS_WindV_AGL-120m_RLatLon0.09_PT010H.grib2 2026-05-01 14:59 522K
20260501T12Z_MSC_RDPS_WindV_AGL-40m_RLatLon0.09_PT010H.grib2 2026-05-01 14:59 525K
20260501T12Z_MSC_RDPS_WindV_AGL-80m_RLatLon0.09_PT010H.grib2 2026-05-01 14:59 523K
20260501T12Z_MSC_RDPS_WindV_IsbL-0001_RLatLon0.09_PT010H.grib2 2026-05-01 14:59 287K
20260501T12Z_MSC_RDPS_WindV_IsbL-0005_RLatLon0.09_PT010H.grib2 2026-05-01 14:59 278K
20260501T12Z_MSC_RDPS_WindV_IsbL-0010_RLatLon0.09_PT010H.grib2 2026-05-01 14:59 289K
20260501T12Z_MSC_RDPS_WindV_IsbL-0020_RLatLon0.09_PT010H.grib2 2026-05-01 14:59 306K
20260501T12Z_MSC_RDPS_WindV_IsbL-0030_RLatLon0.09_PT010H.grib2 2026-05-01 14:59 305K
20260501T12Z_MSC_RDPS_WindV_IsbL-0050_RLatLon0.09_PT010H.grib2 2026-05-01 14:59 332K
20260501T12Z_MSC_RDPS_WindV_IsbL-0100_RLatLon0.09_PT010H.grib2 2026-05-01 14:59 423K
20260501T12Z_MSC_RDPS_WindV_IsbL-0150_RLatLon0.09_PT010H.grib2 2026-05-01 14:59 396K
20260501T12Z_MSC_RDPS_WindV_IsbL-0175_RLatLon0.09_PT010H.grib2 2026-05-01 14:59 419K
20260501T12Z_MSC_RDPS_WindV_IsbL-0200_RLatLon0.09_PT010H.grib2 2026-05-01 14:59 336K
20260501T12Z_MSC_RDPS_WindV_IsbL-0225_RLatLon0.09_PT010H.grib2 2026-05-01 14:59 338K
20260501T12Z_MSC_RDPS_WindV_IsbL-0250_RLatLon0.09_PT010H.grib2 2026-05-01 14:59 338K
20260501T12Z_MSC_RDPS_WindV_IsbL-0275_RLatLon0.09_PT010H.grib2 2026-05-01 14:59 350K
20260501T12Z_MSC_RDPS_WindV_IsbL-0300_RLatLon0.09_PT010H.grib2 2026-05-01 14:59 346K
20260501T12Z_MSC_RDPS_WindV_IsbL-0350_RLatLon0.09_PT010H.grib2 2026-05-01 14:59 453K
20260501T12Z_MSC_RDPS_WindV_IsbL-0400_RLatLon0.09_PT010H.grib2 2026-05-01 14:59 457K
20260501T12Z_MSC_RDPS_WindV_IsbL-0450_RLatLon0.09_PT010H.grib2 2026-05-01 14:59 460K
20260501T12Z_MSC_RDPS_WindV_IsbL-0500_RLatLon0.09_PT010H.grib2 2026-05-01 14:59 463K
20260501T12Z_MSC_RDPS_WindV_IsbL-0550_RLatLon0.09_PT010H.grib2 2026-05-01 14:59 468K
20260501T12Z_MSC_RDPS_WindV_IsbL-0600_RLatLon0.09_PT010H.grib2 2026-05-01 14:59 462K
20260501T12Z_MSC_RDPS_WindV_IsbL-0650_RLatLon0.09_PT010H.grib2 2026-05-01 14:59 481K
20260501T12Z_MSC_RDPS_WindV_IsbL-0700_RLatLon0.09_PT010H.grib2 2026-05-01 14:59 504K
20260501T12Z_MSC_RDPS_WindV_IsbL-0750_RLatLon0.09_PT010H.grib2 2026-05-01 14:59 530K
20260501T12Z_MSC_RDPS_WindV_IsbL-0800_RLatLon0.09_PT010H.grib2 2026-05-01 14:59 566K
20260501T12Z_MSC_RDPS_WindV_IsbL-0850_RLatLon0.09_PT010H.grib2 2026-05-01 14:59 612K
20260501T12Z_MSC_RDPS_WindV_IsbL-0875_RLatLon0.09_PT010H.grib2 2026-05-01 14:59 628K
20260501T12Z_MSC_RDPS_WindV_IsbL-0900_RLatLon0.09_PT010H.grib2 2026-05-01 14:59 639K
20260501T12Z_MSC_RDPS_WindV_IsbL-0925_RLatLon0.09_PT010H.grib2 2026-05-01 14:59 646K
20260501T12Z_MSC_RDPS_WindV_IsbL-0950_RLatLon0.09_PT010H.grib2 2026-05-01 14:59 643K
20260501T12Z_MSC_RDPS_WindV_IsbL-0970_RLatLon0.09_PT010H.grib2 2026-05-01 14:59 781K
20260501T12Z_MSC_RDPS_WindV_IsbL-0985_RLatLon0.09_PT010H.grib2 2026-05-01 14:59 778K
20260501T12Z_MSC_RDPS_WindV_IsbL-1000_RLatLon0.09_PT010H.grib2 2026-05-01 14:59 773K
20260501T12Z_MSC_RDPS_WindV_IsbL-1015_RLatLon0.09_PT010H.grib2 2026-05-01 14:59 812K